Погода в Бауру

Бразилия     22°19′40″S   49°03′55″W
темп.,
°C
ветер,
м/с
пор.,
м/с
влажн.,
%
обл.,
%
осадки,
мм/ч
давл.,
гПа
погр.,
м
26 февраля, пт
пт2600:00+19юв512942 0.2 1011386
03:00+18юв410941 0.2 1010291
06:00+18вюв39930 0.0 1010306
09:00+22вюв46810 0.0 1012439
12:00+25в227622 0.8 1011838
15:00+27в117326 5.7 1008540
18:00+24юв12862 4.2 100879
21:00+20юв414941 5.1 1011492
27 февраля, сб
сб2700:00+19юв513940 0.0 1012459
03:00+19вюв49950 0.0 1011340
06:00+18вюв389711 0.0 1012274
09:00+23в368113 0.0 1014601
12:00+26в226911 1.1 1012892
15:00+29юв12609 2.8 10101171
18:00+24юв37886 2.4 1009274
21:00+21вюв4109525 3.8 1011329
28 февраля, вс
вс2800:00+20в4119493 0.6 1012619
03:00+20в3109691 1.1 1011507
06:00+19вюв379763 0.0 1013280
09:00+23всв377954 0.2 1014744
12:00+24св378264 1.8 1013897
15:00+27св466236 2.3 10101273
18:00+24в25777 0.1 1009371
21:00+22в268151 0.1 1011182
1 марта, пн
пн100:00+21в2689100 0.6 1012203
03:00+20в2892100 1.2 1011307
06:00+20в229199 0.1 101298
09:00+24всв367887 0.1 1013499
12:00+26ссв467186 2.1 10121166
15:00+27ссв356953 3.8 10091195
18:00+25св247515 0.5 1009153
21:00+22всв127651 0.5 101125
2 марта, вт
вт200:00+22в1279100 0.0 101244
03:00+22всв2284100 0.0 101183
06:00+21всв2488100 0.1 1013133
09:00+22св3591100 1.1 1014246
12:00+26с3678100 2.8 10131140
15:00+27с347792 5.5 10111051
18:00+24св128882 4.1 101151
21:00+22всв229088 6.4 101328